Capitol Logistics 460


KEWR
Newark Liberty International Airport
Newark, New Jersey, US
KMSP
Minneapolis-St Paul International Airport
Minneapolis, Minnesota, US

Route Details

Aircraft Information
Primary: Boeing 737-800BCF
Backup: Not Available
Route Data
Distance: 913nm
Sched. Duration: 2h 45m
Avg. Duration: 2h 28m (-17m)
Times Flown: 4
Recm'd Route: COATE Q436 RAAKK Q440 SLLAP IDIOM MUSCL3
Planned Altitude: 36,000ft
Origin Wx: KEWR 221951Z 00000KT 10SM FEW008 OVC015 21/17 A3022 RMK AO2 SLP232 CIG 013V017 T02060172
Dest. Wx: KMSP 221953Z 04011KT 2 1/2SM -RA BR OVC009 01/00 A3006 RMK AO2 PK WND 06026/1919 DZE11RAB11 SLP187 P0001 T00110000
Notes:

Financial History
Total Freight: 70,224lbs
Average Load: 17,556lbs/flt
Fuel Used: 51,815lbs
Avg. Fuel Used: 12,954lbs/flt
Fuel Expense: $63,732
Avg. Fuel Expense: $15,933
Avg. Fuel Cost: $1.23/lbs
Total Gross Income: $93,403
Pilot Pay: $756
Total Expenses: $10,296
Total Revenue: $17,416
Average Revenue: $23,350.80